[[{"header":{"parameterUnit":"m.s-1","parameterCategory":1,"la1":30.2991,"la2":30.254,"lo1":-89.0895,"lo2":-89.0444,"dx":0.0017,"dy":0.0017,"nx":28,"ny":28,"refTime":"2022-11-03T21:00:00:Z","depth":0,"parameterNumber":2,"parameterNumberName":"U-component_of_WINDS"},"data":[0,0,0,0,0,0,0,0,0,0,0,0,0,0,0,0,0,0,0,0,0,0,0,0,0,0,0,0,0,0,0,0,0,0,0,0,0,0,0,0,0,0,0,0,0,0,0,0,0,0,0,0,0,0,0,0,0,0,-2.5531,-2.553,0,-2.541,-2.5408,-2.5407,-2.5337,-2.5337,-2.5337,-2.5337,-2.5213,-2.521,-2.5207,0,0,0,0,0,0,0,0,0,0,0,0,0,-2.5707,-2.5704,-2.5531,-2.553,-2.5528,-2.541,-2.5408,-2.5407,-2.5337,-2.5337,-2.5337,-2.5337,-2.5214,-2.5211,-2.5207,0,0,0,0,0,0,0,0,0,0,0,0,0,-2.5612,-2.5703,-2.5532,-2.548,-2.5474,-2.541,-2.5408,-2.5406,-2.5338,-2.5337,-2.5337,-2.5336,-2.5216,-2.5211,-2.5207,-2.5186,0,0,-2.5193,-2.5191,0,0,0,0,0,0,0,0,-2.5618,-2.5606,-2.5489,-2.5483,-2.5476,-2.5388,-2.5425,-2.5332,-2.5338,-2.5389,-2.5337,-2.5336,-2.5272,-2.5263,-2.5241,-2.518,-2.5175,-2.5192,-2.519,-2.5188,-2.5186,0,0,0,0,0,0,0,-2.5624,-2.5611,-2.5483,-2.5487,-2.5479,-2.5463,-2.5449,-2.5407,-2.5334,-2.5385,-2.5379,-2.5366,-2.5269,-2.5245,-2.5237,-2.5173,-2.5192,-2.5188,-2.5186,-2.5184,-2.5094,-2.5094,0,0,0,0,0,0,-2.5639,-2.5617,-2.5487,-2.548,-2.5548,-2.546,-2.5445,-2.5417,-2.5335,-2.5322,-2.5366,-2.5363,-2.5253,-2.5243,-2.5233,-2.5205,-2.5188,-2.5183,-2.5181,-2.5093,-2.5094,-2.5094,0,0,0,0,0,0,-2.5643,-2.5628,-2.5492,-2.5547,-2.5528,-2.5458,-2.5427,-2.5415,-2.5391,-2.5321,-2.5308,-2.5356,-2.5253,-2.5239,-2.5199,-2.52,-2.5181,-2.5177,-2.5093,-2.5093,-2.5094,-2.5149,0,0,0,0,0,0,-2.5648,-2.563,-2.562,-2.5547,-2.5526,-2.5459,-2.5427,-2.5413,-2.5384,-2.5378,-2.5307,-2.5295,-2.5251,-2.5206,-2.5194,-2.5193,-2.5174,-2.5092,-2.5093,-2.5094,-2.5147,-2.5152,-2.5156,0,0,0,0,0,-2.5655,-2.564,-2.562,-2.5605,-2.5512,-2.5459,-2.5447,-2.5396,-2.5384,-2.5375,-2.533,-2.5297,-2.5202,-2.5203,-2.5189,-2.5187,-2.5092,-2.5093,-2.5094,-2.5145,-2.5151,-2.5156,0,0,0,0,0,0,-2.5715,-2.563,-2.5606,-2.5567,-2.5521,-2.5448,-2.5434,-2.5404,-2.536,-2.5357,-2.5297,-2.5281,-2.5247,-2.5213,-2.5215,-2.5164,-2.5144,-2.5142,-2.5188,-2.5192,-2.5197,-2.5206,-2.517,0,0,0,0,0,-2.5724,-2.5688,-2.5615,-2.5588,-2.5566,-2.5505,-2.5479,-2.5445,-2.5395,-2.5375,-2.5327,-2.528,-2.524,-2.5214,-2.5173,-2.5142,-2.5127,-2.5134,-2.5138,-2.5142,-2.5141,-2.5126,-2.5129,-2.5096,-2.5096,-2.5096,0,0,-2.5741,-2.569,-2.5671,-2.5599,-2.5559,-2.5524,-2.5488,-2.5452,-2.5426,-2.5369,-2.5328,-2.5292,-2.5236,-2.5202,-2.5184,-2.5172,-2.5147,-2.5143,-2.5147,-2.5144,-2.5127,-2.513,-2.5133,-2.5097,-2.5097,-2.5097,0,0,-2.5756,-2.5713,-2.5686,-2.5648,-2.5589,-2.5548,-2.5542,-2.5474,-2.5448,-2.5406,-2.5364,-2.5333,-2.5264,-2.5226,-2.5198,-2.5203,-2.5173,-2.5191,-2.5214,-2.5199,-2.5202,-2.5204,-2.5207,-2.5209,-2.5191,-2.5191,-2.5191,0,-2.5785,-2.573,-2.5677,-2.5644,-2.5615,-2.5563,-2.5537,-2.5502,-2.5433,-2.5414,-2.5402,-2.5317,-2.5275,-2.5232,-2.5234,-2.5212,-2.5205,-2.5199,-2.5205,-2.5207,-2.5208,-2.5211,-2.5212,-2.5194,-2.5193,-2.5193,-2.5193,0,-2.577,-2.5733,-2.5719,-2.5654,-2.5623,-2.5594,-2.5538,-2.5514,-2.5483,-2.5445,-2.5405,-2.5354,-2.5303,-2.529,-2.5259,-2.5244,-2.5239,-2.5217,-2.5195,-2.5215,-2.5217,-2.5217,-2.5198,-2.5197,-2.5196,-2.5195,0,0,-2.5816,-2.5725,-2.572,-2.5692,-2.5624,-2.5595,-2.5565,-2.5515,-2.5497,-2.5451,-2.5426,-2.5371,-2.5351,-2.532,-2.5284,-2.5272,-2.5282,-2.5251,-2.5249,-2.526,-2.5265,-2.5283,-2.5285,-2.5262,-2.5261,-2.5261,-2.527,0,-2.5821,-2.5764,-2.5717,-2.5678,-2.5644,-2.5597,-2.5571,-2.5528,-2.5493,-2.546,-2.5421,-2.5383,-2.5359,-2.534,-2.5326,-2.5284,-2.5282,-2.5282,-2.5239,-2.5238,-2.5255,-2.5285,-2.5303,-2.5313,-2.5271,-2.5271,-2.5271,0,-2.5818,-2.5776,-2.5734,-2.5673,-2.5657,-2.5635,-2.5588,-2.5557,-2.5508,-2.5483,-2.5451,-2.5415,-2.5383,-2.5365,-2.5322,-2.5324,-2.5304,-2.5281,-2.528,-2.5274,-2.5256,-2.5282,-2.5315,-2.5318,-2.5271,-2.5271,-2.5271,0,-2.5858,-2.5791,-2.5758,-2.5734,-2.5662,-2.5648,-2.5617,-2.5568,-2.5543,-2.5502,-2.5485,-2.5442,-2.5418,-2.5386,-2.534,-2.5331,-2.5303,-2.528,-2.5283,-2.5284,-2.5279,-2.528,-2.5311,-2.5265,-2.5265,-2.5265,-2.5265,0,-2.5869,-2.5845,-2.5775,-2.5755,-2.5728,-2.5676,-2.5652,-2.5617,-2.5575,-2.5548,-2.5504,-2.5481,-2.5421,-2.5391,-2.5356,-2.5327,-2.5316,-2.5297,-2.5288,-2.5301,-2.5304,-2.5287,-2.5286,-2.5265,-2.5265,-2.5265,-2.5265,0,-2.5908,-2.586,-2.5821,-2.5757,-2.574,-2.5724,-2.567,-2.5649,-2.5613,-2.558,-2.5569,-2.5512,-2.5475,-2.5427,-2.5373,-2.535,-2.5326,-2.5311,-2.5343,-2.5338,-2.5344,-2.5344,-2.5366,-2.5367,-2.5319,-2.532,-2.532,0,-2.5918,-2.5899,-2.5834,-2.5813,-2.5784,-2.5751,-2.5726,-2.5675,-2.5651,-2.5596,-2.5583,-2.5543,-2.5508,-2.5451,-2.5406,-2.5366,-2.5351,-2.5361,-2.5344,-2.536,-2.5353,-2.5355,-2.5354,-2.5365,-2.5366,-2.5367,-2.5367,0,-2.5941,-2.592,-2.5884,-2.5842,-2.5813,-2.5777,-2.5738,-2.5724,-2.5666,-2.5642,-2.5603,-2.5577,-2.5524,-2.5486,-2.5441,-2.5411,-2.5381,-2.5373,-2.5372,-2.5386,-2.5405,-2.5397,-2.5355,-2.5373,-2.5372,-2.5372,-2.5371,-2.5371,-2.5967,-2.5949,-2.5902,-2.5865,-2.5832,-2.5798,-2.5777,-2.5739,-2.5706,-2.566,-2.5632,-2.5596,-2.5552,-2.5489,-2.546,-2.5433,-2.542,-2.5418,-2.5418,-2.5418,-2.5424,-2.541,-2.5424,-2.5424,-2.5424,-2.5423,-2.5423,0,-2.5989,-2.5957,-2.5924,-2.5874,-2.5846,-2.582,-2.5778,-2.5756,-2.5725,-2.5686,-2.5654,-2.5612,-2.5575,-2.5529,-2.5489,-2.5477,-2.5462,-2.5468,-2.5469,-2.5463,-2.5436,-2.5441,-2.5481,-2.5481,-2.5481,-2.5481,-2.5481,-2.5481,-2.5998,-2.5967,-2.5941,-2.5895,-2.5863,-2.5828,-2.5806,-2.5776,-2.5745,-2.5701,-2.5671,-2.5641,-2.56,-2.5558,-2.5524,-2.5512,-2.55,-2.5511,-2.5495,-2.547,-2.5465,-2.546,-2.5465,-2.5509,-2.5509,-2.5524,-2.5525,-2.5525]},{"header":{"parameterUnit":"m.s-1","parameterCategory":1,"la1":30.2991,"la2":30.254,"lo1":-89.0895,"lo2":-89.0444,"dx":0.0017,"dy":0.0017,"nx":28,"ny":28,"refTime":"2022-11-03T21:00:00:Z","depth":0,"parameterNumber":3,"parameterNumberName":"V-component_of_WINDS"},"data":[0,0,0,0,0,0,0,0,0,0,0,0,0,0,0,0,0,0,0,0,0,0,0,0,0,0,0,0,0,0,0,0,0,0,0,0,0,0,0,0,0,0,0,0,0,0,0,0,0,0,0,0,0,0,0,0,0,0,0.5,0.4999,0,0.4949,0.4948,0.4948,0.4967,0.4969,0.497,0.4971,0.4914,0.4912,0.4909,0,0,0,0,0,0,0,0,0,0,0,0,0,0.5111,0.5109,0.5,0.4999,0.4999,0.4949,0.4948,0.4948,0.4967,0.4969,0.497,0.4971,0.4915,0.4912,0.4909,0,0,0,0,0,0,0,0,0,0,0,0,0,0.5062,0.5108,0.5,0.5003,0.5002,0.4949,0.4948,0.4947,0.4967,0.4969,0.497,0.4972,0.4916,0.4912,0.4909,0.4849,0,0,0.4897,0.4895,0,0,0,0,0,0,0,0,0.5064,0.5058,0.5003,0.5002,0.5002,0.4966,0.4967,0.4914,0.4966,0.498,0.4971,0.4973,0.493,0.4925,0.4911,0.4846,0.4844,0.4896,0.4894,0.4892,0.4891,0,0,0,0,0,0,0,0.5068,0.506,0.498,0.5002,0.5001,0.5005,0.5,0.4957,0.4945,0.4979,0.498,0.4974,0.493,0.4915,0.491,0.4843,0.4896,0.4893,0.489,0.4889,0.4726,0.4724,0,0,0,0,0,0,0.5072,0.5063,0.4981,0.4978,0.5038,0.5002,0.4996,0.4976,0.4946,0.4943,0.4973,0.4975,0.4921,0.4915,0.4908,0.4835,0.4892,0.4889,0.4886,0.4728,0.4725,0.4723,0,0,0,0,0,0,0.5074,0.5064,0.4983,0.5021,0.5011,0.4998,0.4975,0.4974,0.4959,0.4941,0.4939,0.496,0.4922,0.4914,0.4864,0.4834,0.4887,0.4883,0.473,0.4727,0.4724,0.469,0,0,0,0,0,0,0.5077,0.5065,0.5043,0.502,0.5009,0.494,0.4973,0.4972,0.4953,0.4956,0.4929,0.4926,0.4923,0.4869,0.486,0.4829,0.488,0.4732,0.4729,0.4725,0.4693,0.4686,0.468,0,0,0,0,0,0.5081,0.5034,0.5042,0.5032,0.4981,0.4938,0.4932,0.493,0.495,0.4927,0.4916,0.4927,0.4839,0.4864,0.4853,0.4821,0.4734,0.473,0.4725,0.4696,0.4687,0.468,0,0,0,0,0,0,0.5052,0.5031,0.5039,0.4984,0.4963,0.4942,0.4912,0.4921,0.4893,0.4896,0.4895,0.4889,0.4837,0.4825,0.4852,0.4762,0.479,0.4783,0.4771,0.4763,0.4756,0.4759,0.4877,0,0,0,0,0,0.5039,0.5008,0.4991,0.4944,0.4933,0.4925,0.4906,0.4908,0.4885,0.4876,0.4861,0.4838,0.4806,0.4784,0.4753,0.4693,0.4686,0.4666,0.4659,0.4653,0.4646,0.4613,0.4603,0.4708,0.4708,0.4708,0,0,0.5012,0.4997,0.4977,0.4938,0.4922,0.4888,0.4917,0.488,0.4855,0.487,0.4822,0.481,0.4785,0.4729,0.4704,0.4717,0.4616,0.4647,0.4643,0.4639,0.4607,0.4597,0.4588,0.4705,0.4706,0.4706,0,0,0.4945,0.4931,0.489,0.4874,0.485,0.4845,0.4836,0.4814,0.4807,0.4759,0.477,0.474,0.4684,0.4665,0.4648,0.4576,0.4584,0.4566,0.4529,0.4496,0.4488,0.448,0.4453,0.4443,0.456,0.456,0.456,0,0.4913,0.4864,0.4867,0.483,0.4812,0.4827,0.4784,0.4768,0.4735,0.4721,0.4738,0.4668,0.4652,0.4592,0.4575,0.4561,0.4549,0.4568,0.4489,0.4482,0.4475,0.4449,0.4438,0.4558,0.4558,0.4558,0.4558,0,0.4826,0.4792,0.4762,0.4731,0.471,0.467,0.4666,0.4644,0.4648,0.4641,0.4592,0.4574,0.4539,0.4526,0.4528,0.4466,0.4475,0.449,0.4517,0.4462,0.4438,0.4428,0.4555,0.4555,0.4556,0.4557,0,0,0.4736,0.4709,0.4698,0.4684,0.466,0.4633,0.4594,0.4562,0.4543,0.452,0.4486,0.444,0.4454,0.4435,0.4436,0.4408,0.435,0.4426,0.4426,0.4411,0.4279,0.4266,0.4254,0.4357,0.4355,0.4354,0.428,0,0.4665,0.4598,0.46,0.4537,0.4505,0.452,0.4486,0.4467,0.446,0.4431,0.4423,0.439,0.4412,0.4401,0.4374,0.4363,0.4323,0.4369,0.4323,0.4322,0.4327,0.4242,0.4227,0.4159,0.4271,0.4269,0.4268,0,0.4573,0.4549,0.4483,0.4464,0.4451,0.442,0.4391,0.4364,0.4343,0.434,0.432,0.4326,0.4285,0.4316,0.426,0.4291,0.4273,0.4265,0.4262,0.4256,0.429,0.423,0.4137,0.4126,0.4254,0.4255,0.4256,0,0.4512,0.4463,0.4417,0.4405,0.4382,0.436,0.435,0.4331,0.4312,0.4286,0.4274,0.4244,0.4226,0.4203,0.42,0.4223,0.4142,0.4173,0.4137,0.4137,0.4117,0.4117,0.4017,0.4109,0.411,0.411,0.411,0,0.4431,0.4389,0.4389,0.436,0.4314,0.4318,0.4272,0.4263,0.4246,0.4215,0.4227,0.4197,0.4197,0.4167,0.4165,0.4117,0.411,0.4105,0.4104,0.4103,0.4103,0.4089,0.4092,0.4107,0.4108,0.4108,0.4109,0,0.4353,0.4351,0.4302,0.4286,0.4281,0.4247,0.4233,0.4205,0.4201,0.4162,0.4153,0.4145,0.411,0.4106,0.4065,0.4063,0.4006,0.4011,0.4013,0.4013,0.3976,0.3979,0.386,0.3844,0.395,0.3949,0.3948,0,0.43,0.4269,0.425,0.4231,0.422,0.4189,0.417,0.4173,0.4152,0.4127,0.4102,0.4069,0.4042,0.3986,0.3975,0.3944,0.3947,0.3908,0.3942,0.3942,0.3944,0.3945,0.3941,0.39,0.3899,0.3898,0.3898,0,0.4206,0.4208,0.4181,0.4153,0.4131,0.4109,0.4089,0.4072,0.4073,0.4049,0.4015,0.3994,0.3954,0.392,0.3889,0.3877,0.3886,0.3888,0.3877,0.3873,0.3875,0.3872,0.3992,0.3889,0.389,0.3891,0.3891,0.3892,0.4138,0.411,0.4093,0.4063,0.4049,0.403,0.4003,0.3996,0.3968,0.3936,0.3939,0.3901,0.3881,0.3841,0.3827,0.3796,0.3809,0.3794,0.379,0.3786,0.3781,0.3882,0.3791,0.3791,0.3792,0.3792,0.3792,0,0.4043,0.4033,0.4005,0.3977,0.3953,0.3968,0.3946,0.3925,0.3891,0.3873,0.3847,0.3807,0.3775,0.3763,0.3732,0.3709,0.3713,0.37,0.3701,0.3697,0.3773,0.3784,0.3698,0.3698,0.3698,0.3698,0.3698,0.3698,0.399,0.3944,0.3944,0.3891,0.3882,0.3845,0.3832,0.3814,0.3799,0.3755,0.3729,0.3723,0.3707,0.3674,0.3645,0.3642,0.3629,0.3615,0.3613,0.3683,0.3692,0.3701,0.3712,0.3612,0.3612,0.3541,0.354,0.3539]}]]